Location: Recife
(8.0585°S, 34.8848°W)
Time: 06:46:36
(UTC-03:00)

Vanguard 1 - Pass Details

Date: 14 April 2026
Orbit: 654 x 3817 km, 34.2° (Epoch: 13 May)

Event Time Altitude Azimuth Distance (km) Brightness Sun altitude
Rises 08:57:51 0° 298° (WNW) 3,615 12.8 50.5°
Reaches altitude 10° 09:00:48 10° 294° (WNW) 2,401 11.9 51.2°
Maximum altitude 09:05:52 57° 216° (SW) 792 10.0 52.3°
Drops below altitude 10° 09:10:14 10° 136° (SE) 2,067 12.0 53.3°
Sets 09:12:36 0° 131° (SE) 3,057 12.8 53.8°
